Tracking 18957 objects as of 23-Jan-2018
HD Live streaming from Space Station
objects crossing your sky now

OSCAR 6

Track OSCAR 6 now!
10-day predictions
OSCAR 6 is classified as:


NORAD ID: 6236
Int'l Code: 1972-082B
Perigee: 1,455.5 km
Apogee: 1,461.6 km
Inclination: 101.7 °
Period: 114.9 minutes
Semi major axis: 7829 km
RCS: 0.279 m2 (medium)
Launch date: October 15, 1972
Source: United States (US)
Launch site: AIR FORCE WESTERN TEST RANGE (AFWTR)
Uplink (MHz): 145.900-146.000
Downlink (MHz): 29.450- 29.550
Beacon (MHz):
Mode: SSB CW
Call sign:
Status: Inactive

aabbcc
Your satellite tracking list
Your tracking list is empty




NASA's NSSDC Master Catalog

Two Line Element Set (TLE):
1  6236U 72082B   18022.87185201 -.00000029 +00000-0 +10241-3 0  9994
2  6236 101.7461 350.2644 0003886 256.5780 130.1588 12.53141099070740
Source of the keplerian elements: AFSPC